Weather History for KCDA - May, 2014

Change the Weather History Date:

Saturday, May 17, 2014

  Actual Average (K1V4) Record (K1V4)
Temperature  
Mean Temperature 57 °F 57 °F  
Max Temperature 65 °F 69 °F 88 °F (1991)
Min Temperature 49 °F 44 °F 26 °F (1957)
Degree Days  
Heating Degree Days 8 9  
Month to date heating degree days 191  
Since 1 July heating degree days 7610  
Cooling Degree Days 0 0  
Month to date cooling degree days 0  
Year to date cooling degree days 1  
Growing Degree Days 7 (Base 50)    
Moisture  
Dew Point 47 °F    
Average Humidity 68    
Maximum Humidity 90    
Minimum Humidity 40    
Precipitation  
Precipitation 0.00 in 0.10 in 1.79 in (2014)
Month to date precipitation 1.76  
Year to date precipitation 11.81  
Sea Level Pressure  
Sea Level Pressure 29.94 in    
Wind  
Wind Speed - (North)    
Max Wind Speed -    
Max Gust Speed -    
Visibility 9 miles    
Events Rain    
T = Trace of Precipitation, MM = Missing Value Source: NWS Daily Summary

Daily Weather History Graph

Daily Weather History Graph

Search for Another Location

Airport or City:

Trip Planner

Search our weather history database for the weather conditions in past years. The results will help you decide how hot, cold, wet, or windy it might be!

Date:

Astronomy

May. 17, 2014 Rise Set
Actual Time 5:18 AM EDT 8:11 PM EDT
Civil Twilight 4:44 AM EDT 8:45 PM EDT
Nautical Twilight 4:00 AM EDT 9:29 PM EDT
Astronomical Twilight 3:09 AM EDT 10:20 PM EDT
Moon 11:08 PM EDT (5/17) 7:58 AM EDT (5/17)
Length of Visible Light 16h 01m
Length of Day
14h 53m
Waning Gibbous, 89% of the Moon is Illuminated
May 17
Waning Gibbous
May 21
Last Quarter
May 28
New
Jun 5
First Quarter
Jun 13
Full

Hourly Weather History & Observations

Time (EDT) Temp. Dew Point Humidity Pressure Visibility Wind Dir Wind Speed Gust Speed Precip Events Conditions
12:15 AM 65.1 °F 56.5 °F 74% 29.91 in 10.0 mi North - - N/A   Overcast
12:35 AM 65.3 °F 56.3 °F 73% 29.91 in 10.0 mi North - - N/A   Overcast
12:55 AM 65.5 °F 55.8 °F 71% 29.90 in 10.0 mi North - - N/A   Overcast
1:15 AM 65.5 °F 55.6 °F 70% 29.89 in 10.0 mi North - - N/A   Overcast
1:35 AM 65.3 °F 55.6 °F 71% 29.89 in 10.0 mi North - - N/A   Overcast
1:55 AM 65.3 °F 55.9 °F 72% 29.86 in 10.0 mi North - - N/A   Overcast
2:15 AM 64.9 °F 56.5 °F 74% 29.85 in 10.0 mi North - - N/A Rain Light Rain
2:35 AM 64.0 °F 57.2 °F 78% 29.85 in 10.0 mi North - - N/A Rain Rain
2:55 AM 63.5 °F 57.9 °F 82% 29.84 in 10.0 mi North - - N/A Rain Light Rain
3:15 AM 63.5 °F 58.5 °F 84% 29.83 in 10.0 mi North - - N/A   Light Drizzle
3:35 AM 63.5 °F 58.5 °F 84% 29.82 in 10.0 mi North - - N/A   Light Drizzle
3:55 AM 63.5 °F 58.3 °F 83% 29.82 in 10.0 mi North - - N/A   Drizzle
4:15 AM 63.5 °F 57.9 °F 82% 29.81 in 10.0 mi North - - N/A Rain Rain
4:35 AM 63.5 °F 58.1 °F 83% 29.80 in 7.0 mi North - - N/A Rain Heavy Rain
4:55 AM 59.4 °F 53.8 °F 82% 29.85 in 2.0 mi North - - N/A Rain Heavy Rain
5:15 AM 58.1 °F 54.1 °F 87% 29.84 in 4.0 mi North - - N/A Rain Heavy Rain
5:35 AM 58.1 °F 54.9 °F 89% 29.84 in 2.5 mi North - - N/A Rain Heavy Rain
5:55 AM 58.6 °F 55.6 °F 90% 29.85 in 5.0 mi North - - N/A Rain Heavy Rain
6:15 AM 58.6 °F 55.6 °F 90% 29.84 in 5.0 mi North - - N/A Rain Heavy Rain
6:35 AM 58.6 °F 55.8 °F 90% 29.84 in 4.0 mi North - - N/A Rain Rain
6:55 AM 58.5 °F 55.4 °F 90% 29.85 in 5.0 mi North - - N/A Rain Rain
7:15 AM 58.6 °F 55.6 °F 90% 29.85 in 3.0 mi North - - N/A Rain Rain
7:35 AM 55.4 °F 52.0 °F 88% 29.85 in 4.0 mi North - - N/A Rain Rain
7:55 AM 57.2 °F 54.0 °F 89% 29.83 in 5.0 mi North - - N/A Rain Light Rain
8:15 AM 57.2 °F 54.1 °F 89% 29.85 in 0.8 mi North - - N/A   Overcast
8:35 AM 56.3 °F 53.2 °F 89% 29.85 in 10.0 mi North - - N/A   Overcast
8:55 AM 57.4 °F 54.5 °F 90% 29.86 in 10.0 mi North - - N/A   Overcast
9:15 AM 54.7 °F 51.6 °F 89% 29.88 in 7.0 mi North - - N/A   Light Drizzle
9:35 AM 53.4 °F 49.6 °F 87% 29.89 in 10.0 mi North - - N/A   Overcast
9:55 AM 53.8 °F 50.0 °F 87% 29.90 in 10.0 mi North - - N/A   Mostly Cloudy
10:15 AM 54.7 °F 50.4 °F 85% 29.91 in 10.0 mi North - - N/A   Scattered Clouds
10:35 AM 54.5 °F 49.6 °F 84% 29.92 in 10.0 mi North - - N/A   Overcast
10:55 AM 55.0 °F 49.1 °F 80% 29.92 in 10.0 mi North - - N/A   Mostly Cloudy
11:15 AM 56.8 °F 49.6 °F 77% 29.92 in 10.0 mi North - - N/A   Overcast
11:35 AM 55.6 °F 48.9 °F 78% 29.93 in 10.0 mi North - - N/A   Overcast
11:55 AM 56.3 °F 47.5 °F 72% 29.93 in 10.0 mi North - - N/A   Overcast
12:15 PM 58.8 °F 46.0 °F 63% 29.94 in 10.0 mi North - - N/A   Overcast
12:55 PM 57.9 °F 45.9 °F 64% 29.94 in 10.0 mi North - - N/A   Overcast
1:15 PM 60.3 °F 45.5 °F 58% 29.95 in 10.0 mi North - - N/A   Mostly Cloudy
1:35 PM 59.0 °F 43.5 °F 56% 29.95 in 10.0 mi North - - N/A   Mostly Cloudy
1:55 PM 59.2 °F 44.1 °F 57% 29.95 in 10.0 mi North - - N/A   Overcast
2:15 PM 61.0 °F 43.9 °F 53% 29.95 in 10.0 mi North - - N/A   Mostly Cloudy
2:35 PM 60.4 °F 43.5 °F 54% 29.94 in 10.0 mi North - - N/A   Mostly Cloudy
2:55 PM 63.0 °F 43.9 °F 50% 29.94 in 10.0 mi North - - N/A   Scattered Clouds
3:15 PM 63.5 °F 44.2 °F 49% 29.95 in 10.0 mi North - - N/A   Scattered Clouds
3:35 PM 61.3 °F 42.6 °F 50% 29.96 in 10.0 mi North - - N/A   Mostly Cloudy
3:55 PM 64.6 °F 43.0 °F 45% 29.96 in 10.0 mi North - - N/A   Mostly Cloudy
4:15 PM 63.9 °F 40.8 °F 43% 29.97 in 10.0 mi North - - N/A   Overcast
4:35 PM 63.5 °F 40.3 °F 43% 29.97 in 10.0 mi North - - N/A   Overcast
4:55 PM 62.2 °F 37.4 °F 40% 29.98 in 10.0 mi North - - N/A   Mostly Cloudy
5:15 PM 61.7 °F 38.1 °F 42% 29.98 in 10.0 mi North - - N/A   Scattered Clouds
5:35 PM 61.7 °F 38.5 °F 42% 29.99 in 10.0 mi North - - N/A   Clear
5:55 PM 61.7 °F 37.6 °F 41% 29.99 in 10.0 mi North - - N/A   Scattered Clouds
6:15 PM 60.8 °F 36.5 °F 40% 30.00 in 10.0 mi North - - N/A   Mostly Cloudy
6:35 PM 60.8 °F 37.0 °F 41% 30.00 in 10.0 mi North - - N/A   Scattered Clouds
6:55 PM 60.1 °F 36.1 °F 41% 30.01 in 10.0 mi North - - N/A   Scattered Clouds
7:15 PM 59.2 °F 37.4 °F 44% 30.01 in 10.0 mi North - - N/A   Clear
7:35 PM 58.3 °F 36.9 °F 45% 30.02 in 10.0 mi North - - N/A   Scattered Clouds
7:55 PM 56.3 °F 36.7 °F 48% 30.03 in 10.0 mi North - - N/A   Scattered Clouds
8:15 PM 54.1 °F 38.7 °F 56% 30.04 in 10.0 mi North - - N/A   Scattered Clouds
8:35 PM 53.6 °F 40.1 °F 60% 30.05 in 10.0 mi North - - N/A   Scattered Clouds
8:55 PM 53.4 °F 41.0 °F 63% 30.06 in 10.0 mi North - - N/A   Mostly Cloudy
9:15 PM 52.7 °F 41.0 °F 64% 30.06 in 10.0 mi North - - N/A   Mostly Cloudy
9:35 PM 51.1 °F 40.5 °F 67% 30.08 in 10.0 mi North - - N/A   Scattered Clouds
9:55 PM 51.3 °F 40.5 °F 67% 30.08 in 10.0 mi North - - N/A   Scattered Clouds
10:15 PM 50.9 °F 40.1 °F 67% 30.09 in 10.0 mi North - - N/A   Scattered Clouds
10:35 PM 49.8 °F 40.1 °F 69% 30.10 in 10.0 mi North - - N/A   Mostly Cloudy
10:55 PM 50.0 °F 38.3 °F 64% 30.10 in 10.0 mi North - - N/A   Mostly Cloudy
11:15 PM 50.0 °F 38.1 °F 64% 30.10 in 10.0 mi North - - N/A   Mostly Cloudy
11:35 PM 49.1 °F 37.2 °F 64% 30.11 in 10.0 mi North - - N/A   Mostly Cloudy
11:55 PM 49.3 °F 36.0 °F 60% 30.11 in 10.0 mi North - - N/A   Scattered Clouds